Location: Fairmont
(43.6520°N, 94.4610°W)
Time: 17:23:32
(UTC-05:00)

Cosmos-2242 - Visible Passes

Search period start: 18 October 2017 00:00
Search period end: 28 October 2017 00:00
Orbit: 590 x 619 km, 82.5° (Epoch: 18 October)

Date Brightness Start Highest point End Pass type
(mag) Time Alt. Az. Time Alt. Az. Time Alt. Az.
18 Oct 3.6 05:40:30 10° N 05:44:44 56° E 05:48:57 10° SSE visible
18 Oct 5.6 19:49:07 10° SW 19:52:30 22° WNW 19:55:53 10° NNW visible
19 Oct 2.9 05:53:22 10° N 05:57:40 85° W 06:01:59 10° S visible
19 Oct 6.1 20:03:19 10° WSW 20:05:38 14° WNW 20:07:57 10° NW visible
20 Oct 5.9 04:30:08 10° NNE 04:32:40 15° ENE 04:35:12 10° ESE visible
20 Oct 3.1 06:06:23 10° NNW 06:10:33 50° W 06:14:43 10° SSW visible
21 Oct 5.2 04:42:17 10° NNE 04:45:48 24° ENE 04:49:18 10° SE visible
21 Oct 3.7 06:19:37 10° NNW 06:23:22 30° W 06:27:07 10° SSW visible
21 Oct 3.9 18:49:24 10° SSW 18:53:33 53° WNW 18:57:44 10° N visible
22 Oct 4.3 04:54:49 10° N 04:59:12 38° E 05:02:54 10° SE visible
22 Oct 4.4 06:36:30 18° W 06:36:30 18° W 06:39:06 10° SW visible
22 Oct 5.0 19:02:45 10° SW 19:06:34 32° WNW 19:10:24 10° N visible
23 Oct 5.7 05:16:07 10° SSE 05:16:07 10° SSE 05:16:08 10° SSE visible
23 Oct 5.8 19:16:30 10° WSW 19:19:39 20° WNW 19:22:49 10° NNW visible
24 Oct 6.1 19:30:58 10° W 19:32:48 12° WNW 19:34:40 10° NW visible
